Weather History for Sault Ste Marie, MI

Change the Weather History Date:

Friday, September 13, 2013

  Actual Average Record
Temperature  
Mean Temperature 48 °F 58 °F  
Max Temperature 55 °F 68 °F 86 °F (1952)
Min Temperature 40 °F 49 °F 32 °F (1983)
Degree Days  
Heating Degree Days 17 7  
Month to date heating degree days 79 76  
Since 1 July heating degree days 195 223  
Cooling Degree Days 0 1  
Month to date cooling degree days 12 13  
Year to date cooling degree days 264 191  
Moisture  
Dew Point 37 °F    
Average Humidity 72    
Maximum Humidity 89    
Minimum Humidity 54    
Precipitation  
Precipitation 0.00 in 0.14 in 1.45 in (1993)
Month to date precipitation 5.71 1.60  
Year to date precipitation 34.00 20.77  
Sea Level Pressure  
Sea Level Pressure 30.15 in    
Wind  
Wind Speed 8 mph (NNW)    
Max Wind Speed 14 mph    
Max Gust Speed 21 mph    
Visibility 10 miles    
Events      
T = Trace of Precipitation, MM = Missing Value Source: NWS Daily Summary

Daily Weather History Graph

Daily Weather History Graph

Search for Another Location

Airport:

Trip Planner

Search our weather history database for the weather conditions in past years. The results will help you decide how hot, cold, wet, or windy it might be!

Date:

Astronomy

Sep. 13, 2013 Rise Set
Actual Time 7:13 AM EDT 7:52 PM EDT
Civil Twilight 6:42 AM EDT 8:22 PM EDT
Nautical Twilight 6:06 AM EDT 8:58 PM EDT
Astronomical Twilight 5:28 AM EDT 9:36 PM EDT
Moon 3:56 PM EDT (9/13) 12:25 AM EDT (9/13)
Length of Visible Light 13h 40m
Length of Day
12h 39m
First Quarter, 61% of the Moon is Illuminated
Sep 13
First Quarter
Sep 19
Full
Sep 26
Last Quarter
Oct 4
New
Oct 11
First Quarter

Hourly Weather History & Observations

Time (EDT) Temp. Windchill Dew Point Humidity Pressure Visibility Wind Dir Wind Speed Gust Speed Precip Events Conditions
12:55 AM 46.0 °F 41.0 °F 37.9 °F 73% 30.09 in 10.0 mi North 10.4 mph - N/A   Mostly Cloudy
1:42 AM 46.0 °F 41.9 °F 37.9 °F 73% 30.09 in 10.0 mi North 8.1 mph - N/A   Mostly Cloudy
1:55 AM 46.0 °F 42.5 °F 37.9 °F 73% 30.10 in 10.0 mi North 6.9 mph - N/A   Overcast
2:22 AM 45.0 °F 41.2 °F 37.0 °F 74% 30.10 in 10.0 mi North 6.9 mph - N/A   Scattered Clouds
2:45 AM 45.0 °F 40.6 °F 37.0 °F 74% 30.10 in 10.0 mi North 8.1 mph - N/A   Mostly Cloudy
2:55 AM 45.0 °F 40.6 °F 37.0 °F 74% 30.11 in 10.0 mi North 8.1 mph - N/A   Overcast
3:55 AM 45.0 °F 42.6 °F 35.1 °F 68% 30.11 in 10.0 mi North 4.6 mph - N/A   Overcast
4:55 AM 43.0 °F 37.7 °F 34.0 °F 71% 30.13 in 10.0 mi NNE 9.2 mph - N/A   Mostly Cloudy
5:55 AM 43.0 °F 37.7 °F 33.1 °F 68% 30.15 in 10.0 mi North 9.2 mph - N/A   Overcast
6:55 AM 42.1 °F 37.1 °F 33.1 °F 70% 30.16 in 10.0 mi North 8.1 mph - N/A   Overcast
7:53 AM 39.2 °F 33.0 °F 32.0 °F 75% 30.18 in 10.0 mi North 9.2 mph - N/A   Partly Cloudy
7:55 AM 39.9 °F 34.5 °F 32.0 °F 73% 30.19 in 10.0 mi North 8.1 mph - N/A   Partly Cloudy
8:48 AM 41.0 °F 34.7 °F 32.0 °F 70% 30.18 in 10.0 mi North 10.4 mph - N/A   Mostly Cloudy
8:55 AM 42.1 °F 36.6 °F 33.1 °F 70% 30.19 in 10.0 mi NNE 9.2 mph - N/A   Mostly Cloudy
9:33 AM 44.1 °F 39.0 °F 33.1 °F 65% 30.18 in 10.0 mi North 9.2 mph - N/A   Partly Cloudy
9:55 AM 43.0 °F 36.8 °F 32.0 °F 65% 30.19 in 10.0 mi North 11.5 mph 17.3 mph N/A   Partly Cloudy
10:55 AM 46.9 °F - 33.1 °F 59% 30.19 in 10.0 mi NNE 6.9 mph - N/A   Clear
11:55 AM 48.9 °F - 35.1 °F 59% 30.19 in 10.0 mi WNW 9.2 mph - N/A   Clear
12:55 PM 51.1 °F - 35.1 °F 54% 30.18 in 10.0 mi WNW 9.2 mph - N/A   Clear
1:55 PM 53.1 °F - 37.0 °F 55% 30.17 in 10.0 mi WNW 9.2 mph - N/A   Clear
2:55 PM 55.0 °F - 39.9 °F 57% 30.16 in 10.0 mi West 9.2 mph - N/A   Clear
3:55 PM 54.0 °F - 39.0 °F 57% 30.16 in 10.0 mi West 10.4 mph 18.4 mph N/A   Clear
4:55 PM 55.0 °F - 39.9 °F 57% 30.15 in 10.0 mi WNW 11.5 mph - N/A   Clear
5:55 PM 54.0 °F - 39.9 °F 59% 30.15 in 10.0 mi WNW 11.5 mph 19.6 mph N/A   Clear
6:55 PM 53.1 °F - 42.1 °F 66% 30.15 in 10.0 mi WNW 10.4 mph - N/A   Clear
7:55 PM 50.0 °F - 41.0 °F 71% 30.15 in 10.0 mi WNW 9.2 mph - N/A   Clear
8:55 PM 48.9 °F - 42.1 °F 77% 30.15 in 10.0 mi WNW 6.9 mph - N/A   Clear
9:55 PM 48.0 °F - 43.0 °F 83% 30.14 in 10.0 mi WNW 5.8 mph - N/A   Clear
10:55 PM 46.0 °F 44.8 °F 42.1 °F 86% 30.14 in 10.0 mi WNW 3.5 mph - N/A   Clear
11:55 PM 44.1 °F - 41.0 °F 89% 30.13 in 10.0 mi Calm Calm - N/A   Clear